Location: Dessau
(51.7984°N, 12.2168°E)
Time: 13:35:19
(UTC+01:00)

Amateur Radio Satellites - All Passes

Search period start: 19 November 2017 13:05
Search period end: 20 November 2017 13:05
Location: Dessau, 51.7984°N, 12.2168°E

Satellite Date Start Highest point End Downlink Frequencies (MHz)
Time Altitude Azimuth
LO-87 19 Nov 13:05:35 13:07:27 14° 301° (WNW) 13:09:18 145.935 - 145.965
VELOX 1 19 Nov 13:06:29 13:10:58 71° 104° (ESE) 13:15:24 145.980
O/OREOS (USA 219) 19 Nov 13:09:47 13:12:58 19° 101° (E) 13:16:09 437.305
UKube-1 19 Nov 13:11:57 13:14:30 15° 89° (E) 13:17:02 .
BEESAT 3 19 Nov 13:16:56 13:18:00 11° 250° (WSW) 13:19:04 437.485
Oscar 19 19 Nov 13:32:22 13:37:05 37° 264° (W) 13:41:49 437.125/150
AO-7 19 Nov 13:38:06 13:46:08 57° 59° (ENE) 13:54:12 .
Gurwin Techsat 1B 19 Nov 13:38:14 13:43:20 45° 262° (W) 13:48:27 435.225
ITAMSAT 1 19 Nov 13:40:37 13:45:02 29° 59° (ENE) 13:49:29 435.822/435.867
AO-85 19 Nov 13:53:32 13:57:46 36° 239° (WSW) 14:02:16 145.980
DX 1 19 Nov 13:59:33 14:03:55 61° 102° (ESE) 14:08:15 434.975-435.025
50 SAT 19 Nov 13:59:56 14:03:11 78° 103° (ESE) 14:06:24 437.505
M-CUBED/EXP-1 PRIME 19 Nov 14:01:22 14:04:44 39° 256° (WSW) 14:08:24 437.505
SPROUT 19 Nov 14:23:21 14:26:09 17° 302° (WNW) 14:28:57 437.525
YUBILEINY 19 Nov 14:26:37 14:32:34 19° 46° (NE) 14:38:29 435.215
VELOX 1 19 Nov 14:43:50 14:46:56 19° 303° (WNW) 14:50:01 145.980
UKube-1 19 Nov 14:46:41 14:51:03 74° 287° (WNW) 14:55:20 .
O/OREOS (USA 219) 19 Nov 14:47:17 14:51:53 69° 301° (WNW) 14:56:30 437.305
BEESAT 19 Nov 14:48:21 14:52:05 22° 92° (E) 14:55:48 436.000
ITUPSAT 1 19 Nov 14:56:18 15:00:17 26° 93° (E) 15:04:13 437.325
DOVE 4 19 Nov 15:15:03 15:19:32 32° 62° (ENE) 15:24:12 437.250
ITAMSAT 1 19 Nov 15:19:06 15:24:14 55° 259° (W) 15:29:25 435.822/435.867
MOZHAYETS 4 19 Nov 15:30:20 15:34:53 66° 102° (ESE) 15:39:26
AO-7 19 Nov 15:31:21 15:39:10 44° 261° (W) 15:47:03 .
50 SAT 19 Nov 15:34:05 15:34:46 10° 302° (WNW) 15:35:28 437.505
CUBESAT XI-V 19 Nov 15:36:09 15:39:51 23° 91° (E) 15:43:32 437.345
DX 1 19 Nov 15:36:28 15:39:43 21° 301° (WNW) 15:42:58 434.975-435.025
XW-2B 19 Nov 15:42:00 15:42:32 10° 55° (NE) 15:43:03 145.730 - 145.750
LilacSat-2 19 Nov 16:04:15 16:06:49 18° 61° (ENE) 16:09:25 437.200
HO-68 19 Nov 16:04:47 16:09:58 22° 45° (NE) 16:15:09 435.675
KKS-1 19 Nov 16:04:53 16:05:25 10° 84° (E) 16:05:57 437.445
XW-2C 19 Nov 16:05:14 16:07:42 17° 61° (ENE) 16:10:11 145.795 - 145.815
NUDT-PHONESAT 19 Nov 16:05:43 16:07:18 12° 58° (ENE) 16:08:54 437.300
NO-84 19 Nov 16:11:24 16:14:42 28° 137° (SE) 16:18:13 435.350 FM
XW-2F 19 Nov 16:17:39 16:20:28 21° 63° (ENE) 16:23:17 145.980 - 146.000
YUBILEINY 19 Nov 16:22:47 16:31:36 62° 73° (ENE) 16:40:20 435.215
UKube-1 19 Nov 16:24:27 16:26:19 13° 307° (NW) 16:28:10 .
BEESAT 19 Nov 16:25:32 16:30:13 57° 291° (WNW) 16:34:52 436.000
O/OREOS (USA 219) 19 Nov 16:29:19 16:32:11 16° 323° (NW) 16:35:03 437.305
ITUPSAT 1 19 Nov 16:33:45 16:38:21 50° 292° (WNW) 16:42:56 437.325
CUTE-I 19 Nov 16:35:12 16:40:08 39° 63° (ENE) 16:45:05 437.470
RS-15 19 Nov 16:47:20 16:51:19 12° 89° (E) 16:55:17 29.354- 29.394
KAITUO 1B 19 Nov 16:48:50 16:52:09 32° 67° (ENE) 16:55:29 145.475/437.950
DOVE 4 19 Nov 16:52:11 16:57:02 47° 263° (W) 17:02:08 437.250
CUTE 1.7 + AOD 2 19 Nov 16:54:24 16:57:10 17° 59° (ENE) 16:59:57 437.475
XW-2D 19 Nov 16:57:36 17:01:16 55° 72° (ENE) 17:04:57 145.860 - 145.880
MOZHAYETS 4 19 Nov 17:08:18 17:11:37 20° 302° (WNW) 17:14:57
XW-2B 19 Nov 17:12:16 17:16:00 77° 74° (ENE) 17:19:46 145.730 - 145.750
CUBESAT XI-V 19 Nov 17:12:58 17:17:32 55° 291° (WNW) 17:22:07 437.345
CUBEBUG 2 19 Nov 17:26:52 17:30:27 23° 62° (ENE) 17:33:58 437.445
SEEDS 19 Nov 17:28:36 17:31:51 23° 62° (ENE) 17:35:09 437.485
NUDT-PHONESAT 19 Nov 17:36:58 17:40:36 80° 256° (WSW) 17:44:18 437.300
LilacSat-2 19 Nov 17:37:05 17:40:45 52° 260° (W) 17:44:29 437.200
XW-2C 19 Nov 17:37:51 17:41:31 55° 260° (W) 17:45:13 145.795 - 145.815
KKS-1 19 Nov 17:38:18 17:42:48 73° 104° (ESE) 17:47:15 437.445
AO-73 19 Nov 17:42:50 17:43:45 11° 53° (NE) 17:44:40 145.935
AAUSAT CUBESAT 2 19 Nov 17:42:58 17:45:30 16° 58° (ENE) 17:48:02 437.432
NO-84 19 Nov 17:47:46 17:51:44 85° 336° (NNW) 17:55:58 435.350 FM
HO-68 19 Nov 17:49:27 17:56:37 73° 67° (ENE) 18:03:49 435.675
XW-2F 19 Nov 17:50:48 17:54:21 42° 262° (W) 17:57:56 145.980 - 146.000
XW-2A 19 Nov 18:00:43 18:03:10 19° 64° (ENE) 18:05:37 145.665 - 145.685
Oscar 11 19 Nov 18:01:09 18:02:38 12° 53° (NE) 18:04:07 .
BEESAT 19 Nov 18:05:32 18:07:02 11° 311° (NW) 18:08:31 436.000
STARS 19 Nov 18:08:46 18:13:10 63° 102° (ESE) 18:17:31 437.465
ITUPSAT 1 19 Nov 18:14:43 18:15:08 10° 313° (NW) 18:15:32 437.325
CUTE-I 19 Nov 18:15:08 18:20:10 40° 263° (W) 18:25:15 437.470
YUBILEINY 19 Nov 18:20:06 18:28:01 39° 276° (W) 18:35:55 435.215
KAITUO 1B 19 Nov 18:23:07 18:26:11 25° 266° (W) 18:29:17 145.475/437.950
ZACube-1 19 Nov 18:23:28 18:27:01 25° 63° (ENE) 18:30:30 437.345
UWE-3 19 Nov 18:27:27 18:31:42 46° 69° (ENE) 18:35:51 435.000/436.395/437.385
CUTE 1.7 + AOD 2 19 Nov 18:28:21 18:32:32 69° 258° (WSW) 18:36:46 437.475
XW-2D 19 Nov 18:33:31 18:35:47 15° 270° (W) 18:38:05 145.860 - 145.880
RS-15 19 Nov 18:48:57 19:00:28 49° 113° (ESE) 19:11:53 29.354- 29.394
XW-2B 19 Nov 18:49:25 18:50:42 11° 273° (W) 18:51:59 145.730 - 145.750
CUBESAT XI-V 19 Nov 18:52:58 18:53:57 11° 310° (NW) 18:54:57 437.345
STRAND 1 19 Nov 18:53:19 18:57:32 25° 92° (E) 19:01:44 437.568
CUBEBUG 2 19 Nov 19:02:17 19:06:47 54° 260° (W) 19:11:11 437.445
SEEDS 19 Nov 19:03:14 19:07:16 48° 261° (W) 19:11:22 437.485
AO-73 19 Nov 19:14:57 19:19:13 65° 72° (ENE) 19:23:24 145.935
KKS-1 19 Nov 19:15:47 19:18:52 18° 303° (WNW) 19:21:55 437.445
AAUSAT CUBESAT 2 19 Nov 19:16:19 19:20:26 75° 257° (WSW) 19:24:37 437.432
FO-29 19 Nov 19:24:05 19:30:02 23° 84° (E) 19:35:48 435.910
NO-84 19 Nov 19:25:22 19:29:25 54° 360° (N) 19:33:36 435.350 FM
XW-2A 19 Nov 19:32:35 19:35:40 35° 262° (W) 19:38:47 145.665 - 145.685
Oscar 11 19 Nov 19:33:43 19:38:00 70° 72° (ENE) 19:42:18 .
HO-68 19 Nov 19:38:54 19:44:59 29° 268° (W) 19:51:08 435.675
STARS 19 Nov 19:45:53 19:49:06 20° 302° (WNW) 19:52:18 437.465
ZACube-1 19 Nov 19:58:59 20:03:07 43° 262° (W) 20:07:12 437.345
UWE-3 19 Nov 20:04:44 20:08:21 24° 267° (W) 20:11:55 435.000/436.395/437.385
Max Valier Satellite 19 Nov 20:04:52 20:07:49 24° 65° (ENE) 20:10:48 145.860
DELFI C3 19 Nov 20:06:48 20:10:26 36° 67° (ENE) 20:14:06 145.870
EO-88 19 Nov 20:08:25 20:11:04 19° 62° (ENE) 20:13:44 145.990 - 145.960
STRAND 1 19 Nov 20:32:02 20:37:04 56° 292° (WNW) 20:42:03 437.568
AO-73 19 Nov 20:53:06 20:55:52 16° 271° (W) 20:58:36 145.935
RS-15 19 Nov 21:00:13 21:12:36 73° 320° (NW) 21:24:46 29.354- 29.394
NO-84 19 Nov 21:02:53 21:07:07 79° 21° (NNE) 21:11:24 435.350 FM
FO-29 19 Nov 21:08:11 21:16:09 84° 105° (ESE) 21:23:49 435.910
Oscar 11 19 Nov 21:12:00 21:14:37 16° 272° (W) 21:17:16 .
SO-50 19 Nov 21:19:18 21:20:15 11° 108° (ESE) 21:21:10 436.795
UNISAT 6 19 Nov 21:24:14 21:27:55 27° 94° (E) 21:31:33 437.425
PRISM 19 Nov 21:26:49 21:27:51 11° 86° (E) 21:28:54 437.425
TIGRISAT 19 Nov 21:29:09 21:32:51 27° 94° (E) 21:36:29 435.000
O/OREOS (USA 219) 19 Nov 21:33:57 21:37:15 19° 40° (NE) 21:40:30 437.305
Max Valier Satellite 19 Nov 21:38:09 21:41:31 34° 263° (W) 21:44:54 145.860
EO-88 19 Nov 21:41:00 21:44:27 43° 261° (W) 21:47:58 145.990 - 145.960
DELFI C3 19 Nov 21:41:54 21:45:15 26° 266° (W) 21:48:39 145.870
ESTCUBE 1 19 Nov 22:03:32 22:07:46 43° 67° (ENE) 22:12:02 437.505/2401.250
SPROUT 19 Nov 22:10:46 22:13:27 16° 57° (ENE) 22:16:07 437.525
LO-87 19 Nov 22:11:29 22:15:03 61° 73° (ENE) 22:18:38 145.935 - 145.965
STRAND 1 19 Nov 22:13:14 22:15:13 12° 312° (NW) 22:17:12 437.568
nSIGHT-1 19 Nov 22:16:02 22:18:48 27° 149° (SSE) 22:21:34 .
VELOX 1 19 Nov 22:33:55 22:37:04 19° 58° (ENE) 22:40:15 145.980
NO-84 19 Nov 22:40:25 22:44:18 35° 219° (SW) 22:48:10 435.350 FM
AIST 2D 19 Nov 22:45:34 22:48:21 21° 93° (E) 22:51:05 435.315
ISS 19 Nov 22:53:25 22:56:30 39° 155° (SSE) 22:59:35 437.550
FO-29 19 Nov 22:53:47 23:00:25 31° 306° (NW) 23:06:57 435.910
SO-50 19 Nov 22:55:22 22:59:48 64° 128° (SE) 23:04:18 436.795
PRISM 19 Nov 22:59:36 23:03:48 84° 102° (ESE) 23:07:59 437.425
UNISAT 6 19 Nov 23:00:44 23:04:46 39° 293° (WNW) 23:08:44 437.425
TIGRISAT 19 Nov 23:05:39 23:09:39 38° 293° (WNW) 23:13:36 435.000
DUCHIFAT 1 19 Nov 23:08:27 23:10:09 12° 87° (E) 23:11:50 145.980
EO-79 19 Nov 23:12:29 23:15:16 17° 90° (E) 23:18:02 145.935-145.965
O/OREOS (USA 219) 19 Nov 23:12:44 23:17:20 90° 65° (ENE) 23:21:53 437.305
RS-15 19 Nov 23:15:37 23:27:20 46° 351° (N) 23:38:40 29.354- 29.394
NANOSAT C BR1 19 Nov 23:17:04 23:19:49 17° 90° (E) 23:22:33 145.865
DX 1 19 Nov 23:25:52 23:28:41 17° 56° (NE) 23:31:31 434.975-435.025
POLYITAN 1 19 Nov 23:26:51 23:30:13 23° 93° (E) 23:33:33 437.675
ESTCUBE 1 19 Nov 23:40:56 23:44:44 27° 267° (W) 23:48:34 437.505/2401.250
SPROUT 19 Nov 23:44:31 23:48:49 78° 257° (WSW) 23:53:08 437.525
LO-87 19 Nov 23:47:01 23:48:50 13° 271° (W) 23:50:41 145.935 - 145.965
QB50P2 19 Nov 23:49:36 23:53:36 40° 98° (E) 23:57:34 145.880/145.840
nSIGHT-1 19 Nov 23:51:32 23:54:46 76° 168° (SSE) 23:57:58 .
PCSat 20 Nov 00:04:49 00:08:56 23° 109° (ESE) 00:13:05 145.827
BUGSAT 1 20 Nov 00:08:21 00:10:14 13° 87° (E) 00:12:07 437.445
VELOX 1 20 Nov 00:08:39 00:13:04 68° 257° (WSW) 00:17:32 145.980
UKube-1 20 Nov 00:10:56 00:14:34 27° 62° (ENE) 00:18:11 .
AIST 2D 20 Nov 00:18:22 00:21:36 34° 291° (WNW) 00:24:50 435.315
ISS 20 Nov 00:29:32 00:32:50 86° 167° (SSE) 00:36:07 437.550
50 SAT 20 Nov 00:31:44 00:34:56 58° 72° (ENE) 00:38:10 437.505
ITUPSAT 1 20 Nov 00:34:24 00:35:44 11° 48° (NE) 00:37:05 437.325
PRISM 20 Nov 00:36:07 00:38:30 15° 304° (NW) 00:40:53 437.425
SO-50 20 Nov 00:36:33 00:40:35 31° 329° (NNW) 00:44:41 436.795
FO-29 20 Nov 00:41:17 00:43:06 11° 329° (NNW) 00:44:56 435.910
DUCHIFAT 1 20 Nov 00:42:13 00:46:26 86° 283° (WNW) 00:50:35 145.980
EO-79 20 Nov 00:47:16 00:51:26 62° 289° (WNW) 00:55:34 145.935-145.965
NANOSAT C BR1 20 Nov 00:51:47 00:55:56 62° 288° (WNW) 01:00:04 145.865
O/OREOS (USA 219) 20 Nov 00:53:47 00:56:02 14° 262° (W) 00:58:17 437.305
DX 1 20 Nov 00:59:58 01:04:20 78° 254° (WSW) 01:08:46 434.975-435.025
MOZHAYETS 4 20 Nov 01:01:56 01:05:09 19° 58° (ENE) 01:08:22
POLYITAN 1 20 Nov 01:02:11 01:06:12 45° 292° (WNW) 01:10:12 437.675
SPROUT 20 Nov 01:24:48 01:25:27 10° 275° (W) 01:26:06 437.525
QB50P2 20 Nov 01:25:43 01:29:14 26° 297° (WNW) 01:32:45 145.880/145.840
nSIGHT-1 20 Nov 01:27:46 01:30:59 82° 189° (S) 01:34:12 .
RS-15 20 Nov 01:30:57 01:42:50 53° 24° (NNE) 01:54:07 29.354- 29.394
Oscar 19 20 Nov 01:37:33 01:42:36 52° 100° (E) 01:47:38 437.125/150
AO-7 20 Nov 01:38:14 01:38:43 10° 77° (ENE) 01:39:12 .
BUGSAT 1 20 Nov 01:42:04 01:46:09 77° 288° (WNW) 01:50:10 437.445
UKube-1 20 Nov 01:46:17 01:50:24 43° 261° (W) 01:54:34 .
PCSat 20 Nov 01:46:21 01:51:47 78° 309° (NW) 01:57:16 145.827
Gurwin Techsat 1B 20 Nov 01:48:24 01:53:35 48° 99° (E) 01:58:43 435.225
BEESAT 20 Nov 01:59:33 02:04:08 48° 67° (ENE) 02:08:43 436.000
ISS 20 Nov 02:06:01 02:09:17 70° 194° (SSW) 02:12:32 437.550
50 SAT 20 Nov 02:06:16 02:07:24 11° 271° (W) 02:08:33 437.505
ITUPSAT 1 20 Nov 02:07:55 02:12:35 55° 69° (ENE) 02:17:16 437.325
SO-50 20 Nov 02:19:22 02:22:22 17° 353° (N) 02:25:24 436.795
DUCHIFAT 1 20 Nov 02:19:25 02:21:26 13° 305° (NW) 02:23:27 145.980
EO-79 20 Nov 02:25:51 02:26:21 10° 308° (NW) 02:26:51 145.935-145.965
NANOSAT C BR1 20 Nov 02:30:18 02:30:48 10° 308° (NW) 02:31:19 145.865
MOZHAYETS 4 20 Nov 02:37:16 02:41:51 71° 258° (WSW) 02:46:26
DX 1 20 Nov 02:40:16 02:41:17 11° 275° (W) 02:42:19 434.975-435.025
CUBESAT XI-V 20 Nov 02:44:23 02:48:40 40° 66° (ENE) 02:52:59 437.345
nSIGHT-1 20 Nov 03:04:06 03:07:01 32° 208° (SSW) 03:09:55 .
KKS-1 20 Nov 03:06:18 03:09:38 21° 58° (ENE) 03:12:59 437.445
M-CUBED/EXP-1 PRIME 20 Nov 03:07:18 03:11:43 59° 107° (ESE) 03:16:17 437.505
BEESAT 3 20 Nov 03:08:35 03:12:03 29° 120° (ESE) 03:15:33 437.485
Oscar 19 20 Nov 03:17:17 03:21:42 29° 300° (WNW) 03:26:07 437.125/150
BUGSAT 1 20 Nov 03:19:20 03:20:47 12° 306° (NW) 03:22:14 437.445
AO-7 20 Nov 03:25:45 03:33:46 48° 100° (E) 03:41:46 .
ITAMSAT 1 20 Nov 03:26:20 03:31:05 34° 96° (E) 03:35:48 435.822/435.867
Gurwin Techsat 1B 20 Nov 03:28:40 03:33:23 33° 299° (WNW) 03:38:05 435.225
PCSat 20 Nov 03:31:34 03:36:03 25° 332° (NNW) 03:40:32 145.827
STARS 20 Nov 03:35:50 03:38:49 18° 57° (ENE) 03:41:49 437.465
BEESAT 20 Nov 03:38:04 03:42:07 27° 266° (W) 03:46:10 436.000
YUBILEINY 20 Nov 03:40:03 03:44:03 14° 67° (ENE) 03:48:03 435.215
ISS 20 Nov 03:42:46 03:45:25 23° 213° (SSW) 03:48:04 437.550
RS-15 20 Nov 03:44:21 03:56:23 80° 233° (SW) 04:07:43 29.354- 29.394
ITUPSAT 1 20 Nov 03:46:54 03:50:44 23° 268° (W) 03:54:35 437.325
SO-50 20 Nov 04:00:55 04:04:24 21° 18° (NNE) 04:07:55 436.795
AO-85 20 Nov 04:14:11 04:16:50 18° 114° (ESE) 04:19:34 145.980
BEESAT 2 20 Nov 04:15:31 04:19:18 40° 123° (ESE) 04:23:08 435.950
MOZHAYETS 4 20 Nov 04:19:46 04:19:51 10° 277° (W) 04:19:57
CUBESAT XI-V 20 Nov 04:22:04 04:26:08 30° 266° (W) 04:30:13 437.345
STRAND 1 20 Nov 04:38:41 04:41:04 13° 49° (NE) 04:43:27 437.568
KKS-1 20 Nov 04:41:21 04:45:48 63° 258° (WSW) 04:50:17 437.445
M-CUBED/EXP-1 PRIME 20 Nov 04:42:14 04:45:48 24° 305° (NW) 04:49:29 437.505
DOVE 4 20 Nov 04:45:19 04:50:15 38° 95° (E) 04:54:58 437.250
BEESAT 3 20 Nov 04:45:34 04:49:27 46° 320° (NW) 04:53:21 437.485
ITAMSAT 1 20 Nov 05:05:44 05:10:40 43° 295° (WNW) 05:15:33 435.822/435.867
LilacSat-2 20 Nov 05:06:11 05:07:43 12° 87° (E) 05:09:14 437.200
XW-2C 20 Nov 05:06:35 05:07:45 11° 87° (E) 05:08:55 145.795 - 145.815
STARS 20 Nov 05:10:13 05:14:39 75° 256° (WSW) 05:19:07 437.465
PCSat 20 Nov 05:18:01 05:21:21 16° 358° (N) 05:24:40 145.827
XW-2F 20 Nov 05:18:07 05:20:08 14° 89° (E) 05:22:09 145.980 - 146.000
AO-7 20 Nov 05:18:40 05:26:41 54° 302° (WNW) 05:34:43 .
YUBILEINY 20 Nov 05:30:20 05:38:48 58° 91° (E) 05:47:22 435.215
SO-50 20 Nov 05:41:15 05:45:47 55° 41° (NE) 05:50:23 436.795
FO-29 20 Nov 05:43:10 05:48:07 21° 45° (NE) 05:53:23 435.910
KAITUO 1B 20 Nov 05:48:06 05:51:06 22° 93° (E) 05:54:05 145.475/437.950
AO-85 20 Nov 05:52:46 05:56:42 70° 315° (NW) 06:00:54 145.980
BEESAT 2 20 Nov 05:53:17 05:57:05 37° 323° (NW) 06:00:54 435.950
RS-15 20 Nov 05:57:54 06:06:56 27° 259° (W) 06:15:38 29.354- 29.394
XW-2D 20 Nov 05:58:29 06:02:04 38° 98° (E) 06:05:38 145.860 - 145.880
CUTE 1.7 + AOD 2 20 Nov 06:08:38 06:11:07 15° 88° (E) 06:13:35 437.475
XW-2B 20 Nov 06:13:10 06:16:54 52° 100° (E) 06:20:38 145.730 - 145.750
STRAND 1 20 Nov 06:14:13 06:19:17 61° 69° (ENE) 06:24:23 437.568
DOVE 4 20 Nov 06:23:01 06:27:54 39° 295° (WNW) 06:32:37 437.250
BEESAT 3 20 Nov 06:25:17 06:27:54 16° 342° (NNW) 06:30:30 437.485
CUTE-I 20 Nov 06:25:57 06:31:15 54° 101° (E) 06:36:29 437.470
NUDT-PHONESAT 20 Nov 06:35:05 06:38:46 65° 101° (ESE) 06:42:28 437.300
XW-2C 20 Nov 06:38:39 06:42:27 81° 287° (WNW) 06:46:17 145.795 - 145.815
LilacSat-2 20 Nov 06:38:39 06:42:29 77° 286° (WNW) 06:46:19 437.200
SEEDS 20 Nov 06:41:44 06:44:53 20° 91° (E) 06:48:01 437.485
CUBEBUG 2 20 Nov 06:48:01 06:51:14 21° 91° (E) 06:54:23 437.445
XW-2F 20 Nov 06:50:54 06:54:39 64° 287° (WNW) 06:58:24 145.980 - 146.000
STARS 20 Nov 06:51:05 06:51:47 10° 275° (W) 06:52:30 437.465
AAUSAT CUBESAT 2 20 Nov 06:54:17 06:56:08 13° 86° (E) 06:58:00 437.432
HO-68 20 Nov 06:58:44 07:05:39 46° 99° (E) 07:12:29 435.675
PCSat 20 Nov 07:02:27 07:06:44 23° 24° (NNE) 07:11:00 145.827
AO-7 20 Nov 07:12:18 07:17:46 20° 326° (NW) 07:23:16 .
KAITUO 1B 20 Nov 07:21:42 07:25:12 38° 291° (WNW) 07:28:42 145.475/437.950
SO-50 20 Nov 07:22:01 07:26:04 30° 241° (WSW) 07:30:10 436.795
FO-29 20 Nov 07:25:06 07:31:49 68° 68° (ENE) 07:39:21 435.910
YUBILEINY 20 Nov 07:27:45 07:35:59 43° 295° (WNW) 07:44:19 435.215
XW-2D 20 Nov 07:33:01 07:36:05 23° 296° (WNW) 07:39:08 145.860 - 145.880
BEESAT 2 20 Nov 07:33:25 07:35:52 15° 346° (NNW) 07:38:20 435.950
AO-85 20 Nov 07:34:43 07:37:51 21° 338° (NNW) 07:41:08 145.980
ZACube-1 20 Nov 07:41:43 07:45:04 23° 93° (E) 07:48:23 437.345
CUTE 1.7 + AOD 2 20 Nov 07:43:10 07:47:27 73° 287° (WNW) 07:51:43 437.475
UWE-3 20 Nov 07:47:35 07:51:36 45° 99° (E) 07:55:35 435.000/436.395/437.385
XW-2B 20 Nov 07:48:06 07:50:45 18° 299° (WNW) 07:53:24 145.730 - 145.750
STRAND 1 20 Nov 07:54:47 07:58:53 23° 269° (W) 08:03:00 437.568
BEESAT 3 20 Nov 08:04:59 08:06:57 13° 6° (N) 08:08:53 437.485
CUTE-I 20 Nov 08:06:25 08:11:03 30° 300° (WNW) 08:15:39 437.470
NUDT-PHONESAT 20 Nov 08:10:04 08:12:11 15° 300° (WNW) 08:14:19 437.300
XW-2C 20 Nov 08:14:55 08:15:59 11° 304° (NW) 08:17:04 145.795 - 145.815
LilacSat-2 20 Nov 08:15:15 08:16:04 11° 305° (NW) 08:16:54 437.200
SEEDS 20 Nov 08:16:44 08:20:53 53° 289° (WNW) 08:25:01 437.485
PRISM 20 Nov 08:20:08 08:22:54 18° 58° (ENE) 08:25:42 437.425
XW-2A 20 Nov 08:20:46 08:24:08 77° 285° (WNW) 08:27:30 145.665 - 145.685
CUBEBUG 2 20 Nov 08:24:03 08:28:08 48° 291° (WNW) 08:32:08 437.445
UNISAT 6 20 Nov 08:27:40 08:32:03 47° 69° (ENE) 08:36:20 437.425
AAUSAT CUBESAT 2 20 Nov 08:27:58 08:32:11 84° 283° (WNW) 08:36:22 437.432
TIGRISAT 20 Nov 08:32:26 08:36:49 48° 69° (ENE) 08:41:06 435.000
AO-73 20 Nov 08:33:13 08:37:20 65° 102° (ESE) 08:41:27 145.935
PCSat 20 Nov 08:45:44 08:51:09 65° 48° (NE) 08:56:33 145.827
HO-68 20 Nov 08:46:36 08:53:27 48° 300° (WNW) 09:00:15 435.675
Oscar 11 20 Nov 08:51:14 08:55:34 68° 102° (ESE) 08:59:53 .
Max Valier Satellite 20 Nov 09:02:59 09:05:10 15° 90° (E) 09:07:21 145.860
EO-88 20 Nov 09:05:31 09:06:47 11° 88° (E) 09:08:03 145.990 - 145.960
AO-7 20 Nov 09:06:00 09:07:22 10° 353° (N) 09:08:44 .
FO-29 20 Nov 09:11:33 09:17:28 31° 271° (W) 09:24:00 435.910
DELFI C3 20 Nov 09:12:32 09:16:00 27° 94° (E) 09:19:26 145.870
BEESAT 2 20 Nov 09:12:54 09:15:08 14° 10° (N) 09:17:22 435.950
QB50P2 20 Nov 09:15:27 09:16:09 10° 52° (NE) 09:16:51 145.880/145.840
AO-85 20 Nov 09:17:16 09:19:48 15° 4° (N) 09:22:25 145.980
ZACube-1 20 Nov 09:17:36 09:21:32 42° 291° (WNW) 09:25:27 437.345
CUTE 1.7 + AOD 2 20 Nov 09:20:56 09:22:32 12° 306° (NW) 09:24:08 437.475
UWE-3 20 Nov 09:24:32 09:27:50 23° 298° (WNW) 09:31:07 435.000/436.395/437.385
AIST 2D 20 Nov 09:25:06 09:27:36 19° 63° (ENE) 09:30:07 435.315
YUBILEINY 20 Nov 09:31:58 09:35:54 13° 323° (NW) 09:39:50 435.215
BEESAT 3 20 Nov 09:42:27 09:45:47 24° 29° (NNE) 09:49:04 437.485
PRISM 20 Nov 09:53:37 09:57:43 67° 257° (WSW) 10:01:53 437.425
DUCHIFAT 1 20 Nov 10:04:37 10:07:40 20° 60° (ENE) 10:10:44 145.980
AAUSAT CUBESAT 2 20 Nov 10:05:01 10:06:58 13° 304° (NW) 10:08:56 437.432
UNISAT 6 20 Nov 10:05:11 10:08:57 25° 267° (W) 10:12:41 437.425
EO-79 20 Nov 10:09:34 10:13:08 26° 63° (ENE) 10:16:41 145.935-145.965
TIGRISAT 20 Nov 10:09:59 10:13:43 24° 267° (W) 10:17:24 435.000
AO-73 20 Nov 10:10:23 10:13:10 18° 301° (WNW) 10:15:55 145.935
NANOSAT C BR1 20 Nov 10:13:48 10:17:19 26° 63° (ENE) 10:20:50 145.865
POLYITAN 1 20 Nov 10:24:07 10:27:59 35° 66° (ENE) 10:31:51 437.675
Oscar 11 20 Nov 10:28:19 10:31:15 18° 301° (WNW) 10:34:13 .
PCSat 20 Nov 10:29:38 10:34:12 28° 248° (WSW) 10:38:44 145.827
Max Valier Satellite 20 Nov 10:35:44 10:39:19 55° 289° (WNW) 10:42:55 145.860
HO-68 20 Nov 10:35:44 10:39:34 15° 323° (NW) 10:43:24 435.675
EO-88 20 Nov 10:37:14 10:40:54 74° 286° (WNW) 10:44:32 145.990 - 145.960
QB50P2 20 Nov 10:46:55 10:51:06 62° 71° (ENE) 10:55:18 145.880/145.840
DELFI C3 20 Nov 10:47:07 10:50:48 34° 293° (WNW) 10:54:25 145.870
BEESAT 2 20 Nov 10:50:26 10:54:04 30° 33° (NNE) 10:57:39 435.950
AO-7 20 Nov 10:53:00 10:56:36 14° 21° (NNE) 11:00:12 .
AIST 2D 20 Nov 10:57:15 11:00:32 40° 262° (W) 11:03:51 435.315
AO-85 20 Nov 10:57:54 11:01:37 25° 27° (NNE) 11:05:33 145.980
BUGSAT 1 20 Nov 11:02:26 11:05:35 21° 61° (ENE) 11:08:42 437.445
LO-87 20 Nov 11:06:10 11:09:27 34° 97° (E) 11:12:42 145.935 - 145.965
BEESAT 3 20 Nov 11:19:46 11:23:45 77° 231° (SW) 11:27:39 437.485
Oscar 19 20 Nov 11:22:06 11:26:09 24° 57° (ENE) 11:30:12 437.125/150
SPROUT 20 Nov 11:26:09 11:28:01 13° 86° (E) 11:29:52 437.525
ESTCUBE 1 20 Nov 11:26:44 11:31:05 43° 98° (E) 11:35:25 437.505/2401.250
Gurwin Techsat 1B 20 Nov 11:36:39 11:40:52 25° 57° (ENE) 11:45:07 435.225
DUCHIFAT 1 20 Nov 11:38:48 11:42:58 59° 258° (WSW) 11:47:09 145.980
EO-79 20 Nov 11:44:43 11:48:44 41° 262° (W) 11:52:46 145.935-145.965
NANOSAT C BR1 20 Nov 11:48:51 11:52:52 42° 262° (W) 11:56:54 145.865
VELOX 1 20 Nov 11:53:59 11:56:48 16° 89° (E) 11:59:34 145.980
POLYITAN 1 20 Nov 12:00:02 12:03:48 30° 265° (W) 12:07:34 437.675
QB50P2 20 Nov 12:24:26 12:27:17 17° 270° (W) 12:30:09 145.880/145.840
M-CUBED/EXP-1 PRIME 20 Nov 12:24:54 12:27:49 22° 54° (NE) 12:30:55 437.505
BEESAT 2 20 Nov 12:28:03 12:32:02 55° 234° (SW) 12:35:56 435.950
BUGSAT 1 20 Nov 12:36:30 12:40:37 54° 259° (W) 12:44:44 437.445
AO-85 20 Nov 12:38:01 12:42:35 87° 48° (NE) 12:47:31 145.980
AO-7 20 Nov 12:39:51 12:46:53 32° 47° (NE) 12:53:57 .
LO-87 20 Nov 12:39:52 12:42:42 23° 296° (WNW) 12:45:31 145.935 - 145.965
DX 1 20 Nov 12:44:13 12:46:09 13° 87° (E) 12:48:06 434.975-435.025
BEESAT 3 20 Nov 12:59:23 13:00:33 11° 250° (WSW) 13:01:43 437.485
